sat.trackr.live / text

‹ back to catalog

STARLINK-3114

NORAD 49426 · 2021-104U

PAYLOAD ACTIVE UNKNOWN

§ Identity

Operator
Country
US
Launch date
2021-11-13
Launch site
AFETR
Launch vehicle
Mass (kg)
RCS (m²)

Purposes: comms

External: N2YO · Heavens-Above · Gunter

§ Orbital elements

Epoch: 2026-09-12T21:08:32.238816Z

Period
93.85 min
Inclination
53.1597°
Eccentricity
0.0001446
Mean motion
15.34387021 rev/d
Perigee alt
461.8 km
Apogee alt
463.7 km
Semi-major
6,840.9 km
B*
3.2006e-5
RAAN
96.9933°
Arg perigee
92.5716°
Mean anomaly
267.5452°
Rev number
26,704

§ Raw data

STARLINK-31141 49426U 21104U   26255.88092869  .00000705  00000+0  32006-4 0  99992 49426  53.1597  96.9933 0001446  92.5716 267.5452 15.34387021267045

JSON: /api/v1/satellites/49426 · /tle

For live sub-satellite position, see the globe view (requires WebGL).

§ Visibility from observer

Set your observer location to see the next 7 days of passes ≥ 10°. The values pass through the URL so the page stays shareable.

No JS? Fill the form by hand. The geolocation button needs JavaScript.